This is the latest recevied weather packets stored in our database for station/object KE0FIN. If no packets are shown the sender has not sent any weather packets the latest 1 day(s).
| Time | Temp. | Humidity | Pressure | Rain* | Wind** | Luminosity | Snow |
|---|---|---|---|---|---|---|---|
| 1777965984 | 14.44° C | 70% | 1057.3 hPa | 0 mm | 1.34 m/s, 104° | 0 W/m² | - |
| 1777965681 | 14.44° C | 71% | 1057.2 hPa | 0 mm | 0.45 m/s, 115° | 0 W/m² | - |
| 1777965377 | 14.44° C | 72% | 1056.4 hPa | 0 mm | 1.79 m/s, 80° | 0 W/m² | - |
| 1777965075 | 14.44° C | 73% | 1056.3 hPa | 0 mm | 2.24 m/s, 135° | 0 W/m² | - |
| 1777964772 | 14.44° C | 72% | 1056.1 hPa | 0 mm | 0.89 m/s, 114° | 0 W/m² | - |
| 1777964468 | 14.44° C | 73% | 1056.1 hPa | 0 mm | 1.34 m/s, 180° | 0 W/m² | - |
| 1777964164 | 15° C | 74% | 1056.2 hPa | 0 mm | 0 m/s | 0 W/m² | - |
| 1777963860 | 15° C | 74% | 1056.2 hPa | 0 mm | 1.34 m/s, 103° | 0 W/m² | - |
| 1777963557 | 15° C | 75% | 1056 hPa | 0 mm | 0.45 m/s, 118° | 0 W/m² | - |
| 1777963256 | 15° C | 75% | 1056 hPa | 0 mm | 0.89 m/s, 131° | 0 W/m² | - |
| 1777962953 | 15.56° C | 75% | 1055.7 hPa | 0 mm | 1.34 m/s, 113° | 0 W/m² | - |
| 1777962648 | 15.56° C | 74% | 1055.5 hPa | 0 mm | 1.79 m/s, 277° | 0 W/m² | - |
| 1777962345 | 15.56° C | 75% | 1055.4 hPa | 0 mm | 0.89 m/s, 220° | 0 W/m² | - |
| 1777962043 | 15.56° C | 75% | 1055.3 hPa | 0 mm | 0.45 m/s, 117° | 0 W/m² | - |
| 1777961740 | 16.11° C | 75% | 1055.3 hPa | 0 mm | 0.45 m/s, 102° | 0 W/m² | - |
| 1777961438 | 16.11° C | 75% | 1055 hPa | 0 mm | 0.89 m/s, 76° | 0 W/m² | - |
| 1777961135 | 16.11° C | 75% | 1054.9 hPa | 0 mm | 0.45 m/s, 123° | 0 W/m² | - |
| 1777960831 | 16.11° C | 75% | 1054.9 hPa | 0 mm | 0.89 m/s, 114° | 0 W/m² | - |
| 1777960527 | 16.11° C | 75% | 1054.4 hPa | 0 mm | 0 m/s | 0 W/m² | - |
| 1777960224 | 16.11° C | 74% | 1054.6 hPa | 0 mm | 0.89 m/s, 127° | 0 W/m² | - |
| 1777959921 | 16.11° C | 73% | 1054.7 hPa | 0 mm | 0.89 m/s, 55° | 0 W/m² | - |
| 1777959619 | 16.67° C | 72% | 1054.7 hPa | 0 mm | 1.34 m/s, 70° | 0 W/m² | - |
| 1777959316 | 16.67° C | 71% | 1054.4 hPa | 0 mm | 0.45 m/s, 193° | 0 W/m² | - |
| 1777959013 | 17.22° C | 69% | 1055.2 hPa | 0 mm | 1.79 m/s, 97° | 0 W/m² | - |
| 1777958710 | 17.78° C | 67% | 1055.2 hPa | 0 mm | 2.24 m/s, 267° | 0 W/m² | - |
* Rain latest hour (hover to see other rain measurements)
** Current wind speed in m/s (hover to see current wind gust speed)